Regional Weather Roundup
Issued by NWS

Home | Current Version | Previous Version | Text Only | Print | Product List | Glossary On
Versions: 1 2 3 4 5 6 7 8 9 10 11 12 13 14 15 16 17 18 19 20 21 22 23 24 25 26 27 28 29 30 31 32 33 34 35 36 37 38 39 40 41 42 43 44 45 46 47 48 49 50
000
ASUS43 KDTX 181610
RWRMI
MICHIGAN HOURLY REGIONAL WEATHER ROUNDUP
NATIONAL WEATHER SERVICE DETROIT/PONTIAC MI
ISSUED BY NATIONAL WEATHER SERVICE GRAND RAPIDS MI
1200 PM EDT FRI AUG 18 2017

NOTE: "FAIR" INDICATES FEW OR NO CLOUDS BELOW 12,000 FEET WITH NO
SIGNIFICANT WEATHER AND/OR OBSTRUCTION TO VISIBILITY.

MIZ047>049-052>055-059>063-066>070-074>076-081>083-181700-
SOUTHEAST LOWER MICHIGAN

CITY           SKY/WX    TMP DP  RH WIND       PRES   REMARKS
ADRIAN         CLOUDY    73  63  70 W10G22    29.82S
ALMA           CLOUDY    70  62  75 W14G28    29.75F
ANN ARBOR      PTSUNNY   77  63  61 SW17      29.79R
BAD AXE        CLOUDY    69  61  74 W12G22    29.72R
DETROIT CITY   CLOUDY    74  62  66 W9G26     29.77R
DETROIT        CLOUDY    75  63  66 W15       29.79R
FLINT          CLOUDY    69  62  78 W12G20    29.77R
GROSSE ILE     CLOUDY    74  63  68 W10G17    29.78R
HILLSDALE      CLOUDY    72  61  68 W14G20    29.84R
HOWELL         CLOUDY    72  61  67 W16G22    29.79R

CITY           SKY/WX    TMP DP  RH WIND       PRES   REMARKS
JACKSON          N/A     71  61  70 W18G26    29.81R
LANSING        LGT RAIN  69  60  73 W13       29.80R
MASON          CLOUDY    73  62  68 W9G22     29.80S
MONROE         CLOUDY    75  63  66 W14G24    29.79R
MT. CLEMENS    PTSUNNY   73  64  73 W10G20    29.75R
PONTIAC        PTSUNNY   71  62  73 W18       29.77R
PORT HOPE        N/A     71  62  73 SW14G23   29.67R
PORT HURON     PTSUNNY   75  63  64 SW7G16    29.74S
TRI CITIES     CLOUDY    71  64  78 W17       29.73S
YPSILANTI      CLOUDY    75  64  68 W15       29.79R
$$
MIZ043>046-050>051-056>058-064>065-071>073-077>080-181700-
SOUTHWEST LOWER MICHIGAN

CITY           SKY/WX    TMP DP  RH WIND       PRES   REMARKS
BATTLE CREEK   CLOUDY    70  61  73 W13       29.84R
BENTON HARBOR  CLOUDY    71  61  70 W15       29.86R
BIG RAPIDS     CLOUDY    64  61  87 W14G22    29.77R FOG
COLDWATER      CLOUDY    72  62  71 W13       29.84R
HOLLAND        CLOUDY    70  61  73 W8        29.83R
GRAND RAPIDS   CLOUDY    71  61  70 W17G24    29.80R
KALAMAZOO      CLOUDY    71  60  68 W12G22    29.84R
MARSHALL       CLOUDY    71  62  72 W16       29.82R
MOUNT PLEASANT PTSUNNY   70  61  72 W17G26    29.74S
MUSKEGON       PTSUNNY   73  62  68 W18G25    29.79R
STURGIS        CLOUDY    72  61  68 NW10G17   29.85R
$$
MIZ016>042-181700-
NORTHERN LOWER MICHIGAN

CITY           SKY/WX    TMP DP  RH WIND       PRES   REMARKS
ALPENA         CLOUDY    71  64  78 SW14G21   29.63R
BEAVER ISLAND  CLOUDY    65  60  82 NW9G20    29.67S
BELLAIRE       CLOUDY    64  61  91 CALM      29.69S
CADILLAC       RAIN      65  62  89 W9        29.74R
CHARLEVOIX     CLOUDY    64  62  95 W15G22    29.71R
GAYLORD        LGT RAIN  62  60  93 W12G20    29.69R FOG
HOUGHTON LAKE  CLOUDY    65  61  87 W15G24    29.72R
MANISTEE       CLOUDY    66  61  84 W15G23    29.75R
OSCODA         CLOUDY    71  62  73 W17       29.65R
PELLSTON       CLOUDY    64  61  90 W12       29.65R
TRAVERSE CITY  CLOUDY    65  61  87 W8        29.70R
LUDINGTON      CLOUDY    68  60  75 W13       29.77R
$$
MIZ007>008-015-181700-
EASTERN UPPER MICHIGAN

CITY           SKY/WX    TMP DP  RH WIND       PRES   REMARKS
KINROSS        CLOUDY    65  63  93 NW13      29.60R
MACKINAC ISLAN CLOUDY    64  64 100 W9        29.62R
NEWBERRY       CLOUDY    61  60  97 NW15G23   29.64S
S. S. MARIE    CLOUDY    64  63  96 W12       29.58R FOG
$$
MIZ004>006-011>014-085-181700-
CENTRAL UPPER MICHIGAN

CITY           SKY/WX    TMP DP  RH WIND       PRES   REMARKS
MANISTIQUE     CLOUDY    62  56  82 NW18G24   29.67R
ESCANABA       CLOUDY    65  58  78 NW15      29.72R
MENOMINEE      CLOUDY    67  57  70 NW10G18   29.76R
SAWYER-GWINN   CLOUDY    61  55  82 N13G22    29.72S
$$
MIZ001>003-009>011-084-181700-
WESTERN UPPER MICHIGAN

CITY           SKY/WX    TMP DP  RH WIND       PRES   REMARKS
IRON MOUNTAIN  PTSUNNY   66  54  65 NW14G23   29.76R
HOUGHTON       CLOUDY    60  56  86 NW15      29.76R
COPPER HARBOR    N/A     59  55  87 N20       29.72R
IRONWOOD       CLOUDY    64  58  80 NW9       29.84R
$$

ABBREVIATIONS USED IN REMARKS
   TC - TEMPERATURE IN CELSIUS
  WCI - WIND CHILL INDEX
   HX - HEAT INDEX
  VSB - VISIBILITY





USA.gov is the U.S. government's official web portal to all federal, state and local government web resources and services.